Date String (YYYY-MM-DD hh:mm:ss) UTC,Instrument flags,absolute air pressure of the measurement (hPa),sample flow rate (lpm),inlet stack bypass flow (lpm),air temperature of the measurement (°C),ambient temperature measured by the external sensor (°C),aerosol sample conditioner tube jacket temperature (°C),OPC LED temperature (°C),internal box temperature (°C),relative humidity of the measurement (%),span deviation,mass concentration of particles derived from Lorenz-Mie calculation of OPC scattering (μg/m³),mass concentration of particles derived from Lorenz-Mie calculation of OPC scattering (μg/m³),mass concentration of particles derived from Lorenz-Mie calculation of OPC scattering (μg/m³)
DateTimeUTC,F1_M11,P_M11,Q1_M11,Q2_M11,T1_M11,T2_M11,T3_M11,T4_M11,T5_M11,U1_M11,ZSPAN_M11,X0_M11,X2_M11,X1_M11
2023-08-28 09:00:00,SystemResetWarning,0835.8,4.99,000.00,030.1,027.6,000.0,038.5,030.7,34.3,0001.0,0007.48,0004.66,0004.22
2023-08-28 09:01:00,SystemResetWarning,0835.9,5.00,000.00,030.0,027.6,000.0,038.5,030.7,34.3,0001.1,0007.55,0004.63,0004.21
2023-08-28 09:02:00,SystemResetWarning,0835.9,5.00,000.00,030.0,027.5,000.0,038.5,030.8,34.3,0000.4,0007.52,0004.57,0004.19
2023-08-28 09:03:00,SystemResetWarning,0835.9,4.98,000.00,030.0,026.1,000.0,038.3,030.5,34.3,-000.2,0007.48,0004.55,0004.18
2023-08-28 09:04:00,SystemResetWarning,0835.9,5.01,000.00,029.9,024.7,000.0,038.2,030.3,34.4,-000.3,0007.47,0004.53,0004.15
2023-08-28 09:05:00,SystemResetWarning,0835.8,5.00,000.00,029.8,024.5,000.0,038.1,030.0,34.6,0000.0,0007.60,0004.55,0004.12
2023-08-28 09:06:00,SystemResetWarning,0835.8,4.99,000.00,029.6,024.7,000.0,038.1,029.9,35.0,0000.0,0007.62,0004.49,0004.10
2023-08-28 09:07:00,SystemResetWarning,0835.7,5.01,000.00,029.6,025.1,000.0,038.1,030.0,35.1,0000.0,0007.64,0004.47,0004.07
2023-08-28 09:08:00,SystemResetWarning,0835.8,5.00,000.00,029.7,025.5,000.0,038.1,030.2,34.7,0000.0,0007.52,0004.41,0004.04
2023-08-28 09:09:00,SystemResetWarning,0835.7,4.99,000.00,029.8,025.8,000.0,038.1,030.3,34.3,0000.1,0007.55,0004.39,0004.04
2023-08-28 09:10:00,SystemResetWarning,0835.8,5.02,000.00,029.9,026.1,000.0,038.1,030.3,34.0,0000.0,0007.52,0004.35,0004.03
2023-08-28 09:11:00,SystemResetWarning,0835.8,4.99,000.00,029.9,026.4,000.0,038.1,030.3,33.9,0000.0,0007.50,0004.36,0004.02
2023-08-28 09:12:00,SystemResetWarning,0835.7,4.99,000.00,029.9,026.6,000.0,038.1,030.3,33.7,0000.0,0007.38,0004.38,0004.02
2023-08-28 09:13:00,SystemResetWarning,0835.7,5.00,000.00,029.9,026.8,000.0,038.2,030.4,33.6,0000.0,0007.34,0004.40,0004.02
2023-08-28 09:14:00,SystemResetWarning,0835.7,5.01,000.00,029.9,026.9,000.0,038.2,030.4,33.5,0000.0,0007.57,0004.41,0004.02
2023-08-28 09:15:00,SystemResetWarning,0835.7,5.01,000.00,029.9,027.0,000.0,038.2,030.4,33.5,0000.0,0007.98,0004.40,0004.03
2023-08-28 09:16:00,SystemResetWarning,0835.8,5.01,000.00,029.9,027.1,000.0,038.2,030.5,33.4,0000.0,0007.94,0004.39,0004.04
2023-08-28 09:17:00,SystemResetWarning,0835.7,5.00,000.00,029.9,027.2,000.0,038.2,030.5,33.4,0000.0,0007.87,0004.42,0004.07
2023-08-28 09:18:00,SystemResetWarning,0835.7,4.99,000.00,029.8,027.3,000.0,038.2,030.5,33.5,0000.0,0007.96,0004.46,0004.09
2023-08-28 09:19:00,SystemResetWarning,0835.7,4.99,000.00,029.8,027.4,000.0,038.2,030.5,33.6,0000.0,0008.04,0004.50,0004.11
2023-08-28 09:20:00,SystemResetWarning,0835.7,5.00,000.00,029.8,027.4,000.0,038.2,030.6,33.6,0000.0,0008.03,0004.53,0004.11
2023-08-28 09:21:00,SystemResetWarning,0835.6,5.00,000.00,029.8,027.5,000.0,038.3,030.6,33.7,0000.0,0007.97,0004.54,0004.14
2023-08-28 09:22:00,SystemResetWarning,0835.6,5.00,000.00,029.8,027.5,000.0,038.3,030.6,33.7,0000.0,0008.01,0004.56,0004.16
2023-08-28 09:23:00,SystemResetWarning,0835.7,5.01,000.00,029.8,027.5,000.0,038.3,030.6,33.6,0000.0,0008.21,0004.62,0004.17
2023-08-28 09:24:00,SystemResetWarning,0835.6,5.00,000.00,029.8,027.6,000.0,038.3,030.6,33.6,0000.4,0008.39,0004.65,0004.16
2023-08-28 09:25:00,SystemResetWarning,0835.7,5.00,000.00,029.8,027.6,000.0,038.3,030.6,33.5,0000.3,0008.36,0004.69,0004.16
2023-08-28 09:26:00,SystemResetWarning,0835.6,5.00,000.00,029.8,027.6,000.0,038.3,030.7,33.4,0001.0,0007.93,0004.72,0004.14
2023-08-28 09:27:00,SystemResetWarning,0835.6,4.99,000.00,029.8,027.6,000.0,038.3,030.7,33.2,0000.9,0008.08,0004.77,0004.14
2023-08-28 09:28:00,SystemResetWarning,0835.6,4.99,000.00,029.7,027.1,000.0,038.2,030.7,33.0,0001.1,0008.32,0004.85,0004.15
2023-08-28 09:29:00,SystemResetWarning,0835.6,5.01,000.00,029.7,025.3,000.0,038.0,030.4,33.0,0001.5,0008.45,0004.89,0004.15
2023-08-28 09:30:00,SystemResetWarning,0835.6,5.01,000.00,029.6,024.4,000.0,037.9,030.2,33.2,0001.8,0008.58,0004.93,0004.16
2023-08-28 09:31:00,SystemResetWarning,0835.6,5.02,000.00,029.4,024.5,000.0,037.9,029.8,33.7,0002.3,0008.59,0004.96,0004.17
2023-08-28 09:32:00,SystemResetWarning,0835.6,5.00,000.00,029.3,024.8,000.0,037.9,029.8,34.3,0002.2,0008.67,0004.99,0004.18
2023-08-28 09:33:00,SystemResetWarning,0835.6,5.00,000.00,029.2,025.2,000.0,037.9,029.9,34.6,0001.3,0009.03,0005.00,0004.18
2023-08-28 09:34:00,SystemResetWarning,0835.6,5.00,000.00,029.2,025.6,000.0,037.9,030.0,34.6,0000.7,0009.30,0004.97,0004.19
2023-08-28 09:35:00,SystemResetWarning,0835.6,4.99,000.00,029.1,025.9,000.0,037.9,030.0,34.6,0000.6,0009.14,0004.92,0004.20
2023-08-28 09:36:00,SystemResetWarning,0835.6,4.99,000.00,029.1,026.2,000.0,037.8,030.1,34.5,0000.3,0008.91,0004.85,0004.20
2023-08-28 09:37:00,SystemResetWarning,0835.6,5.00,000.00,029.1,026.4,000.0,037.8,030.1,34.6,0000.1,0008.92,0004.83,0004.21
2023-08-28 09:38:00,SystemResetWarning,0835.6,5.00,000.00,029.1,026.6,000.0,037.8,030.1,34.5,0000.4,0008.85,0004.81,0004.21
2023-08-28 09:39:00,SystemResetWarning,0835.6,5.01,000.00,029.1,026.7,000.0,037.8,030.2,34.5,0000.2,0008.69,0004.75,0004.20
2023-08-28 09:40:00,SystemResetWarning,0835.6,5.00,000.00,029.1,026.9,000.0,037.8,030.2,34.5,-000.2,0008.57,0004.71,0004.20
2023-08-28 09:41:00,SystemResetWarning,0835.6,5.01,000.00,029.1,027.0,000.0,037.7,030.2,34.5,-000.2,0008.30,0004.64,0004.18
2023-08-28 09:42:00,SystemResetWarning,0835.6,5.00,000.00,029.1,027.1,000.0,037.7,030.3,34.5,-000.1,0008.17,0004.59,0004.17
2023-08-28 09:43:00,SystemResetWarning,0835.6,4.99,000.00,029.1,027.1,000.0,037.7,030.3,34.4,0000.0,0008.06,0004.54,0004.13
2023-08-28 09:44:00,SystemResetWarning,0835.6,4.99,000.00,029.1,027.2,000.0,037.7,030.3,34.5,0000.0,0007.68,0004.50,0004.11
2023-08-28 09:45:00,SystemResetWarning,0835.7,5.00,000.00,029.1,027.3,000.0,037.7,030.3,34.4,0000.0,0007.22,0004.47,0004.09
2023-08-28 09:46:00,SystemResetWarning,0835.7,4.99,000.00,029.1,027.3,000.0,037.7,030.3,34.4,0000.0,0007.24,0004.47,0004.07
2023-08-28 09:47:00,SystemResetWarning,0835.7,5.00,000.00,029.1,027.4,000.0,037.7,030.4,34.4,0000.1,0007.34,0004.47,0004.05
2023-08-28 09:48:00,SystemResetWarning,0835.7,5.01,000.00,029.1,027.4,000.0,037.7,030.4,34.4,0000.0,0007.30,0004.47,0004.03
2023-08-28 09:49:00,SystemResetWarning,0835.8,5.01,000.00,029.1,027.4,000.0,037.7,030.4,34.4,0000.0,0007.16,0004.45,0004.02
2023-08-28 09:50:00,SystemResetWarning,0835.7,5.01,000.00,029.1,027.5,000.0,037.7,030.4,34.3,0000.0,0007.02,0004.42,0004.01
2023-08-28 09:51:00,SystemResetWarning,0835.6,5.00,000.00,029.1,027.5,000.0,037.7,030.4,34.2,0000.0,0006.93,0004.41,0004.00
2023-08-28 09:52:00,SystemResetWarning,0835.6,5.00,000.00,029.1,027.5,000.0,037.7,030.4,34.1,0000.0,0006.92,0004.40,0003.98
2023-08-28 09:53:00,SystemResetWarning,0835.6,5.00,000.00,029.1,027.5,000.0,037.7,030.5,33.8,0000.0,0007.17,0004.42,0003.98
2023-08-28 09:54:00,SystemResetWarning,0835.6,4.99,000.00,029.1,027.6,000.0,037.7,030.5,33.5,0000.0,0007.20,0004.42,0003.99
2023-08-28 09:55:00,SystemResetWarning,0835.6,4.99,000.00,029.1,027.6,000.0,037.7,030.5,33.4,0000.0,0007.13,0004.41,0003.99
2023-08-28 09:56:00,SystemResetWarning,0835.6,5.00,000.00,029.1,027.4,000.0,037.7,030.5,33.4,0000.0,0007.54,0004.42,0003.99
2023-08-28 09:57:00,SystemResetWarning,0835.6,5.00,000.00,029.1,025.7,000.0,037.6,030.3,33.3,0000.0,0007.96,0004.43,0004.01
2023-08-28 09:58:00,SystemResetWarning,0835.5,5.00,000.00,029.0,024.5,000.0,037.4,030.0,33.4,0000.0,0008.02,0004.46,0004.03
2023-08-28 09:59:00,SystemResetWarning,0835.5,5.01,000.00,028.9,024.3,000.0,037.4,029.7,33.8,0000.0,0007.97,0004.44,0004.03
